| time (UTC) | temp C | wind direction | speed KPH | gust KPH | rain 1hr cm | rain 24hr cm | rain mn cm | humidity % | barometer mb |
| 20260906122034 | 17 | 0 | 0.0 | 0.0 | 0.00 | 0.00 | 0.00 | 100 | 1019.2 |
| 20260906121557 | 17 | 0 | 0.0 | 0.0 | 0.00 | 0.00 | 0.00 | 100 | 1019.2 |
| 20260906121037 | 16 | 0 | 0.0 | 0.0 | 0.00 | 0.00 | 0.00 | 100 | 1019.1 |
| 20260906120535 | 16 | 0 | 0.0 | 0.0 | 0.00 | 0.00 | 0.00 | 100 | 1019.0 |
| 20260906120128 | 16 | 0 | 0.0 | 0.0 | 0.00 | 0.00 | 0.00 | 100 | 1018.9 |
| 20260906115538 | 16 | 0 | 0.0 | 0.0 | 0.00 | 0.00 | 0.00 | 100 | 1018.9 |
| 20260906115041 | 16 | 0 | 0.0 | 0.0 | 0.00 | 0.00 | 0.00 | 100 | 1018.8 |
| 20260906114612 | 16 | 0 | 0.0 | 0.0 | 0.00 | 0.00 | 0.00 | 100 | 1018.8 |
| 20260906114035 | 17 | 0 | 0.0 | 0.0 | 0.00 | 0.00 | 0.00 | 100 | 1018.6 |
| 20260906113538 | 17 | 0 | 0.0 | 0.0 | 0.00 | 0.00 | 0.00 | 100 | 1018.5 |
| 20260906113053 | 17 | 0 | 0.0 | 0.0 | 0.00 | 0.00 | 0.00 | 100 | 1018.5 |
| 20260906112537 | 17 | 0 | 0.0 | 0.0 | 0.00 | 0.00 | 0.00 | 100 | 1018.6 |
| 20260906112037 | 17 | 0 | 0.0 | 0.0 | 0.00 | 0.00 | 0.00 | 100 | 1018.5 |
| 20260906111617 | 17 | 0 | 0.0 | 0.0 | 0.00 | 0.00 | 0.00 | 100 | 1018.5 |
| 20260906111035 | 17 | 0 | 0.0 | 0.0 | 0.00 | 0.00 | 0.00 | 100 | 1018.4 |
| 20260906110535 | 17 | 0 | 0.0 | 0.0 | 0.00 | 0.00 | 0.00 | 100 | 1018.5 |
| 20260906110053 | 17 | 0 | 0.0 | 0.0 | 0.00 | 0.00 | 0.00 | 100 | 1018.4 |
| 20260906105537 | 17 | 0 | 0.0 | 0.0 | 0.00 | 0.00 | 0.00 | 100 | 1018.2 |
| 20260906105041 | 17 | 0 | 0.0 | 0.0 | 0.00 | 0.00 | 0.00 | 100 | 1018.3 |
| 20260906104550 | 17 | 0 | 0.0 | 0.0 | 0.00 | 0.00 | 0.00 | 100 | 1018.3 |
| 20260906104037 | 17 | 0 | 0.0 | 0.0 | 0.00 | 0.00 | 0.00 | 100 | 1018.3 |
| 20260906103534 | 17 | 0 | 0.0 | 0.0 | 0.00 | 0.00 | 0.00 | 100 | 1018.1 |
| 20260906103057 | 17 | 0 | 0.0 | 0.0 | 0.00 | 0.00 | 0.00 | 100 | 1018.3 |
| 20260906102538 | 17 | 0 | 0.0 | 0.0 | 0.00 | 0.00 | 0.00 | 100 | 1018.2 |
| 20260906102035 | 17 | 0 | 0.0 | 0.0 | 0.00 | 0.00 | 0.00 | 100 | 1018.2 |
| 20260906101554 | 17 | 0 | 0.0 | 4.8 | 0.00 | 0.00 | 0.00 | 100 | 1018.3 |
| 20260906101037 | 17 | 0 | 0.0 | 4.8 | 0.00 | 0.00 | 0.00 | 100 | 1018.3 |
| 20260906100538 | 17 | 0 | 1.6 | 4.8 | 0.00 | 0.00 | 0.00 | 100 | 1018.2 |
| 20260906100059 | 17 | 0 | 0.0 | 3.2 | 0.00 | 0.00 | 0.00 | 100 | 1018.1 |
| 20260906095537 | 17 | 0 | 0.0 | 3.2 | 0.00 | 0.00 | 0.00 | 100 | 1018.2 |
| 20260906095036 | 17 | 0 | 0.0 | 0.0 | 0.00 | 0.00 | 0.00 | 100 | 1018.2 |
| 20260906094552 | 17 | 0 | 0.0 | 0.0 | 0.00 | 0.00 | 0.00 | 100 | 1018.2 |
| 20260906094035 | 17 | 0 | 0.0 | 6.4 | 0.00 | 0.00 | 0.00 | 100 | 1018.1 |
| 20260906093535 | 17 | 0 | 1.6 | 6.4 | 0.00 | 0.00 | 0.00 | 100 | 1018.0 |
| 20260906093057 | 17 | 59 | 0.0 | 6.4 | 0.00 | 0.00 | 0.00 | 100 | 1017.8 |
| 20260906092535 | 17 | 0 | 0.0 | 0.0 | 0.00 | 0.00 | 0.00 | 100 | 1017.8 |
| 20260906092035 | 17 | 0 | 0.0 | 0.0 | 0.00 | 0.00 | 0.00 | 100 | 1017.7 |
| 20260906091554 | 17 | 0 | 0.0 | 0.0 | 0.00 | 0.00 | 0.00 | 100 | 1017.8 |
| 20260906091038 | 17 | 0 | 0.0 | 0.0 | 0.00 | 0.00 | 0.00 | 100 | 1017.9 |
| 20260906090536 | 17 | 0 | 0.0 | 3.2 | 0.00 | 0.00 | 0.00 | 100 | 1017.9 |
| 20260906090056 | 17 | 0 | 0.0 | 3.2 | 0.00 | 0.00 | 0.00 | 100 | 1017.9 |
| 20260906085539 | 17 | 0 | 0.0 | 3.2 | 0.00 | 0.00 | 0.00 | 100 | 1017.9 |
| 20260906085035 | 17 | 0 | 0.0 | 3.2 | 0.00 | 0.00 | 0.00 | 100 | 1017.8 |
| 20260906084555 | 16 | 0 | 0.0 | 3.2 | 0.00 | 0.00 | 0.00 | 100 | 1018.0 |
| 20260906084036 | 16 | 0 | 0.0 | 0.0 | 0.00 | 0.00 | 0.00 | 100 | 1017.9 |
| 20260906083535 | 16 | 0 | 0.0 | 0.0 | 0.00 | 0.00 | 0.00 | 100 | 1017.9 |
| 20260906083056 | 16 | 0 | 0.0 | 0.0 | 0.00 | 0.00 | 0.00 | 100 | 1017.8 |
| 20260906082537 | 16 | 0 | 0.0 | 0.0 | 0.00 | 0.00 | 0.00 | 100 | 1017.7 |
| 20260906082035 | 16 | 0 | 0.0 | 0.0 | 0.00 | 0.00 | 0.00 | 100 | 1017.7 |
| 20260906081558 | 16 | 0 | 0.0 | 0.0 | 0.00 | 0.00 | 0.00 | 100 | 1017.6 |
| 20260906081037 | 16 | 0 | 0.0 | 0.0 | 0.00 | 0.00 | 0.00 | 100 | 1017.9 |
| 20260906080537 | 16 | 0 | 0.0 | 0.0 | 0.00 | 0.00 | 0.00 | 100 | 1017.8 |
| 20260906080133 | 16 | 0 | 0.0 | 0.0 | 0.00 | 0.00 | 0.00 | 100 | 1017.8 |
| 20260906075536 | 16 | 0 | 0.0 | 0.0 | 0.00 | 0.00 | 0.00 | 100 | 1017.9 |
| 20260906075038 | 16 | 0 | 0.0 | 0.0 | 0.00 | 0.00 | 0.00 | 100 | 1017.8 |
| 20260906074552 | 16 | 0 | 0.0 | 0.0 | 0.00 | 0.00 | 0.00 | 100 | 1017.9 |
| 20260906074035 | 16 | 0 | 0.0 | 0.0 | 0.00 | 0.00 | 0.00 | 100 | 1017.9 |
| 20260906073539 | 16 | 0 | 0.0 | 0.0 | 0.00 | 0.00 | 0.00 | 100 | 1017.9 |
| 20260906073057 | 16 | 0 | 0.0 | 0.0 | 0.00 | 0.00 | 0.00 | 100 | 1017.9 |
| 20260906072535 | 16 | 0 | 0.0 | 0.0 | 0.00 | 0.00 | 0.00 | 100 | 1017.8 |
| 20260906072035 | 16 | 0 | 0.0 | 0.0 | 0.00 | 0.00 | 0.00 | 99 | 1017.7 |
| 20260906071557 | 16 | 0 | 0.0 | 0.0 | 0.00 | 0.00 | 0.00 | 99 | 1017.8 |
| 20260906071035 | 16 | 0 | 0.0 | 0.0 | 0.00 | 0.00 | 0.00 | 99 | 1017.7 |
| 20260906070537 | 16 | 0 | 0.0 | 0.0 | 0.00 | 0.00 | 0.00 | 99 | 1017.8 |
| 20260906065536 | 16 | 0 | 0.0 | 0.0 | 0.00 | 0.00 | 0.00 | 99 | 1017.9 |
| 20260906065038 | 16 | 0 | 0.0 | 0.0 | 0.00 | 0.00 | 0.00 | 99 | 1017.9 |
| 20260906064553 | 16 | 0 | 0.0 | 0.0 | 0.00 | 0.00 | 0.00 | 99 | 1018.0 |
| 20260906064037 | 16 | 0 | 0.0 | 0.0 | 0.00 | 0.00 | 0.00 | 99 | 1018.1 |
| 20260906063541 | 16 | 0 | 0.0 | 0.0 | 0.00 | 0.00 | 0.00 | 99 | 1017.9 |
| 20260906063055 | 16 | 0 | 0.0 | 0.0 | 0.00 | 0.00 | 0.00 | 99 | 1017.9 |
| 20260906062539 | 16 | 0 | 0.0 | 0.0 | 0.00 | 0.00 | 0.00 | 99 | 1018.0 |
| 20260906062037 | 16 | 0 | 0.0 | 0.0 | 0.00 | 0.00 | 0.00 | 98 | 1018.1 |
| 20260906061554 | 16 | 0 | 0.0 | 0.0 | 0.00 | 0.00 | 0.00 | 98 | 1017.9 |
| 20260906061037 | 16 | 0 | 0.0 | 0.0 | 0.00 | 0.00 | 0.00 | 98 | 1017.9 |
| 20260906060538 | 16 | 0 | 0.0 | 0.0 | 0.00 | 0.00 | 0.00 | 98 | 1017.9 |
| 20260906060100 | 16 | 0 | 0.0 | 0.0 | 0.00 | 0.00 | 0.00 | 98 | 1017.9 |
| 20260906055535 | 16 | 0 | 0.0 | 0.0 | 0.00 | 0.00 | 0.00 | 98 | 1017.9 |
| 20260906055035 | 17 | 0 | 0.0 | 0.0 | 0.00 | 0.00 | 0.00 | 98 | 1017.9 |
| 20260906054616 | 17 | 0 | 0.0 | 0.0 | 0.00 | 0.00 | 0.00 | 98 | 1017.9 |
| 20260906054037 | 17 | 0 | 0.0 | 3.2 | 0.00 | 0.00 | 0.00 | 98 | 1017.8 |
| 20260906053538 | 17 | 0 | 0.0 | 3.2 | 0.00 | 0.00 | 0.00 | 98 | 1017.9 |
| 20260906053051 | 17 | 0 | 0.0 | 3.2 | 0.00 | 0.00 | 0.00 | 98 | 1017.9 |
| 20260906052537 | 17 | 0 | 0.0 | 0.0 | 0.00 | 0.00 | 0.00 | 97 | 1017.9 |
| 20260906052034 | 17 | 0 | 0.0 | 1.6 | 0.00 | 0.00 | 0.00 | 98 | 1017.8 |
| 20260906051556 | 17 | 0 | 0.0 | 1.6 | 0.00 | 0.00 | 0.00 | 98 | 1017.8 |
| 20260906051034 | 17 | 0 | 0.0 | 1.6 | 0.00 | 0.00 | 0.00 | 98 | 1017.8 |
| 20260906050536 | 17 | 0 | 0.0 | 1.6 | 0.00 | 0.00 | 0.00 | 97 | 1017.7 |
| 20260906050104 | 17 | 0 | 0.0 | 0.0 | 0.00 | 0.00 | 0.00 | 97 | 1017.7 |
| 20260906045533 | 17 | 0 | 0.0 | 4.8 | 0.00 | 0.00 | 0.00 | 97 | 1017.7 |
| 20260906045035 | 17 | 0 | 0.0 | 4.8 | 0.00 | 0.00 | 0.00 | 97 | 1017.8 |
| 20260906044552 | 17 | 0 | 0.0 | 3.2 | 0.00 | 0.00 | 0.00 | 97 | 1017.7 |
| 20260906044036 | 17 | 0 | 0.0 | 0.0 | 0.00 | 0.00 | 0.00 | 97 | 1017.6 |
| 20260906043535 | 17 | 0 | 0.0 | 0.0 | 0.00 | 0.00 | 0.00 | 96 | 1017.5 |
| 20260906043100 | 17 | 0 | 0.0 | 0.0 | 0.00 | 0.00 | 0.00 | 96 | 1017.5 |
| 20260906042536 | 17 | 0 | 0.0 | 0.0 | 0.00 | 0.00 | 0.00 | 96 | 1017.6 |
| 20260906042037 | 17 | 0 | 0.0 | 0.0 | 0.00 | 0.00 | 0.00 | 95 | 1017.3 |
| 20260906041553 | 17 | 0 | 0.0 | 0.0 | 0.00 | 0.00 | 0.00 | 95 | 1017.2 |
| 20260906041038 | 17 | 0 | 0.0 | 0.0 | 0.00 | 0.00 | 0.00 | 95 | 1017.3 |
| 20260906040537 | 18 | 0 | 0.0 | 0.0 | 0.00 | 0.00 | 0.00 | 95 | 1017.1 |
| 20260906040119 | 18 | 0 | 0.0 | 0.0 | 0.00 | 0.00 | 0.00 | 95 | 1017.1 |
| 20260906035537 | 18 | 0 | 0.0 | 0.0 | 0.00 | 0.00 | 0.00 | 95 | 1017.1 |
| 20260906035037 | 18 | 0 | 0.0 | 4.8 | 0.00 | 0.00 | 0.00 | 95 | 1017.2 |
| 20260906034600 | 18 | 0 | 0.0 | 4.8 | 0.00 | 0.00 | 0.00 | 95 | 1017.4 |
| 20260906034038 | 18 | 0 | 0.0 | 8.0 | 0.00 | 0.00 | 0.00 | 95 | 1017.3 |
| 20260906033537 | 18 | 0 | 0.0 | 8.0 | 0.00 | 0.00 | 0.00 | 96 | 1017.1 |
| 20260906033117 | 18 | 0 | 1.6 | 6.4 | 0.00 | 0.00 | 0.00 | 96 | 1017.1 |
| 20260906032539 | 18 | 0 | 0.0 | 4.8 | 0.00 | 0.00 | 0.00 | 96 | 1017.2 |
| 20260906032035 | 18 | 0 | 1.6 | 4.8 | 0.00 | 0.00 | 0.00 | 97 | 1017.0 |
| 20260906031611 | 18 | 0 | 0.0 | 8.0 | 0.00 | 0.00 | 0.00 | 97 | 1017.0 |
| 20260906031042 | 18 | 48 | 0.0 | 9.7 | 0.00 | 0.00 | 0.00 | 97 | 1016.9 |
| 20260906030538 | 19 | 49 | 1.6 | 9.7 | 0.00 | 0.00 | 0.00 | 97 | 1016.9 |
| 20260906030054 | 19 | 47 | 4.8 | 9.7 | 0.00 | 0.00 | 0.00 | 97 | 1016.8 |
| 20260906025537 | 19 | 51 | 3.2 | 11.3 | 0.00 | 0.00 | 0.00 | 97 | 1016.9 |
| 20260906025038 | 19 | 57 | 3.2 | 11.3 | 0.00 | 0.00 | 0.00 | 98 | 1016.7 |
| 20260906024607 | 19 | 0 | 3.2 | 9.7 | 0.00 | 0.00 | 0.00 | 98 | 1016.8 |
| 20260906024042 | 19 | 71 | 4.8 | 11.3 | 0.00 | 0.00 | 0.00 | 98 | 1016.9 |
| 20260906023538 | 19 | 58 | 3.2 | 11.3 | 0.00 | 0.00 | 0.00 | 98 | 1016.8 |
| 20260906023104 | 19 | 29 | 3.2 | 9.7 | 0.00 | 0.00 | 0.00 | 98 | 1016.7 |
| 20260906022533 | 19 | 44 | 1.6 | 9.7 | 0.00 | 0.00 | 0.00 | 98 | 1016.6 |
| 20260906022037 | 19 | 57 | 1.6 | 6.4 | 0.00 | 0.00 | 0.00 | 97 | 1016.6 |
| 20260906021612 | 19 | 59 | 1.6 | 6.4 | 0.00 | 0.00 | 0.00 | 97 | 1016.6 |
| 20260906021037 | 19 | 59 | 1.6 | 6.4 | 0.00 | 0.00 | 0.00 | 97 | 1016.7 |
| 20260906020537 | 19 | 69 | 0.0 | 4.8 | 0.00 | 0.00 | 0.00 | 97 | 1016.6 |
| 20260906015537 | 20 | 0 | 0.0 | 6.4 | 0.00 | 0.00 | 0.00 | 97 | 1016.5 |
| 20260906015037 | 20 | 84 | 1.6 | 6.4 | 0.00 | 0.00 | 0.00 | 97 | 1016.6 |
| 20260906014556 | 20 | 104 | 1.6 | 4.8 | 0.00 | 0.00 | 0.00 | 97 | 1016.6 |
| 20260906014036 | 20 | 0 | 0.0 | 4.8 | 0.00 | 0.00 | 0.00 | 96 | 1016.6 |
| 20260906013539 | 20 | 57 | 0.0 | 4.8 | 0.00 | 0.00 | 0.00 | 96 | 1016.7 |
| 20260906013059 | 20 | 0 | 0.0 | 4.8 | 0.00 | 0.00 | 0.00 | 96 | 1016.8 |
| 20260906012537 | 20 | 0 | 0.0 | 4.8 | 0.00 | 0.00 | 0.00 | 96 | 1016.8 |
| 20260906012033 | 20 | 54 | 0.0 | 4.8 | 0.00 | 0.00 | 0.00 | 96 | 1016.7 |
| 20260906011553 | 20 | 51 | 0.0 | 4.8 | 0.00 | 0.00 | 0.00 | 96 | 1016.8 |
| 20260906011043 | 20 | 0 | 0.0 | 9.7 | 0.00 | 0.00 | 0.00 | 96 | 1016.8 |
| 20260906010536 | 20 | 0 | 1.6 | 9.7 | 0.00 | 0.00 | 0.00 | 96 | 1016.7 |
| 20260906010053 | 20 | 49 | 3.2 | 6.4 | 0.00 | 0.00 | 0.00 | 95 | 1016.8 |
| 20260906005535 | 20 | 0 | 0.0 | 6.4 | 0.00 | 0.00 | 0.00 | 95 | 1016.7 |
| 20260906005037 | 20 | 34 | 3.2 | 11.3 | 0.00 | 0.00 | 0.00 | 95 | 1016.8 |
| 20260906004600 | 20 | 20 | 1.6 | 11.3 | 0.00 | 0.00 | 0.00 | 95 | 1016.8 |
| 20260906004035 | 20 | 39 | 1.6 | 8.0 | 0.00 | 0.00 | 0.00 | 94 | 1016.7 |
| 20260906003535 | 21 | 49 | 1.6 | 9.7 | 0.00 | 0.00 | 0.00 | 94 | 1016.6 |
| 20260906003057 | 21 | 52 | 3.2 | 9.7 | 0.00 | 0.00 | 0.00 | 94 | 1016.7 |
| 20260906002537 | 21 | 0 | 1.6 | 8.0 | 0.00 | 0.00 | 0.00 | 93 | 1016.8 |
| 20260906002034 | 21 | 84 | 0.0 | 9.7 | 0.00 | 0.00 | 0.00 | 93 | 1016.8 |
| 20260906001554 | 21 | 0 | 1.6 | 14.5 | 0.00 | 0.00 | 0.00 | 93 | 1016.7 |
| 20260906001033 | 21 | 65 | 3.2 | 14.5 | 0.00 | 0.00 | 0.00 | 92 | 1016.6 |
| 20260906000536 | 21 | 98 | 3.2 | 14.5 | 0.00 | 0.00 | 0.00 | 92 | 1016.5 |
| 20260906000108 | 22 | 90 | 1.6 | 9.7 | 0.00 | 0.00 | 0.00 | 91 | 1016.5 |
| 20260905235536 | 22 | 0 | 3.2 | 8.0 | 0.00 | 0.00 | 0.00 | 91 | 1016.4 |
| 20260905235037 | 22 | 0 | 1.6 | 9.7 | 0.00 | 0.00 | 0.00 | 90 | 1016.4 |
| 20260905234602 | 22 | 68 | 1.6 | 9.7 | 0.00 | 0.00 | 0.00 | 90 | 1016.5 |
| 20260905234035 | 22 | 0 | 1.6 | 9.7 | 0.00 | 0.00 | 0.00 | 90 | 1016.4 |
| 20260905233542 | 22 | 81 | 1.6 | 6.4 | 0.00 | 0.00 | 0.00 | 91 | 1016.4 |
| 20260905233056 | 22 | 78 | 0.0 | 12.9 | 0.00 | 0.00 | 0.00 | 91 | 1016.5 |
| 20260905232536 | 22 | 53 | 1.6 | 12.9 | 0.00 | 0.00 | 0.00 | 91 | 1016.5 |
| 20260905232036 | 22 | 78 | 3.2 | 12.9 | 0.00 | 0.00 | 0.00 | 91 | 1016.6 |
| 20260905231554 | 22 | 50 | 3.2 | 17.7 | 0.00 | 0.00 | 0.00 | 91 | 1016.5 |
| 20260905231038 | 22 | 59 | 0.0 | 17.7 | 0.00 | 0.00 | 0.00 | 91 | 1016.5 |
| 20260905230540 | 23 | 0 | 6.4 | 17.7 | 0.00 | 0.00 | 0.00 | 90 | 1016.5 |
| 20260905230051 | 23 | 0 | 4.8 | 16.1 | 0.00 | 0.00 | 0.00 | 90 | 1016.5 |
| 20260905225538 | 23 | 46 | 1.6 | 16.1 | 0.00 | 0.00 | 0.00 | 89 | 1016.5 |
| 20260905225043 | 23 | 42 | 4.8 | 16.1 | 0.00 | 0.00 | 0.00 | 89 | 1016.3 |
| 20260905224755 | 23 | 111 | 3.2 | 14.5 | 0.00 | 0.00 | 0.00 | 89 | 1016.3 |
| 20260905224037 | 23 | 38 | 3.2 | 14.5 | 0.00 | 0.00 | 0.00 | 88 | 1016.2 |
| 20260905223533 | 23 | 92 | 1.6 | 14.5 | 0.00 | 0.00 | 0.00 | 88 | 1016.3 |
| 20260905223054 | 23 | 35 | 3.2 | 17.7 | 0.00 | 0.00 | 0.00 | 87 | 1016.3 |
| 20260905222537 | 23 | 65 | 6.4 | 22.5 | 0.00 | 0.00 | 0.00 | 86 | 1016.1 |
| 20260905222037 | 23 | 53 | 4.8 | 22.5 | 0.00 | 0.00 | 0.00 | 85 | 1016.1 |
| 20260905221554 | 24 | 52 | 4.8 | 22.5 | 0.00 | 0.00 | 0.00 | 85 | 1016.1 |
| 20260905221034 | 24 | 50 | 8.0 | 22.5 | 0.00 | 0.00 | 0.00 | 84 | 1016.1 |
| 20260905220534 | 24 | 83 | 1.6 | 16.1 | 0.00 | 0.00 | 0.00 | 86 | 1016.2 |
| 20260905220059 | 25 | 82 | 8.0 | 19.3 | 0.00 | 0.00 | 0.00 | 84 | 1016.0 |
| 20260905215538 | 25 | 32 | 6.4 | 19.3 | 0.00 | 0.00 | 0.00 | 83 | 1015.8 |
| 20260905215033 | 25 | 0 | 4.8 | 14.5 | 0.00 | 0.00 | 0.00 | 85 | 1015.8 |
| 20260905214556 | 25 | 42 | 4.8 | 14.5 | 0.00 | 0.00 | 0.00 | 85 | 1015.8 |
| 20260905214037 | 25 | 34 | 4.8 | 19.3 | 0.00 | 0.00 | 0.00 | 85 | 1015.7 |
| 20260905213533 | 25 | 51 | 8.0 | 19.3 | 0.00 | 0.00 | 0.00 | 86 | 1015.6 |
| 20260905213110 | 25 | 39 | 8.0 | 20.9 | 0.00 | 0.00 | 0.00 | 85 | 1015.7 |
| 20260905212537 | 25 | 48 | 11.3 | 22.5 | 0.00 | 0.00 | 0.00 | 84 | 1015.5 |
| 20260905212034 | 25 | 41 | 11.3 | 22.5 | 0.00 | 0.00 | 0.00 | 83 | 1015.4 |
| 20260905211607 | 26 | 38 | 4.8 | 20.9 | 0.00 | 0.00 | 0.00 | 85 | 1015.4 |
| 20260905211038 | 25 | 40 | 6.4 | 20.9 | 0.00 | 0.00 | 0.00 | 84 | 1015.4 |
| 20260905210534 | 25 | 53 | 11.3 | 20.9 | 0.00 | 0.00 | 0.00 | 84 | 1015.3 |
| 20260905205534 | 25 | 46 | 8.0 | 20.9 | 0.00 | 0.00 | 0.00 | 84 | 1015.3 |
| 20260905205035 | 26 | 0 | 9.7 | 20.9 | 0.00 | 0.00 | 0.00 | 85 | 1015.2 |
| 20260905204551 | 26 | 57 | 11.3 | 20.9 | 0.00 | 0.00 | 0.00 | 86 | 1015.4 |
| 20260905204036 | 26 | 26 | 11.3 | 20.9 | 0.00 | 0.00 | 0.00 | 87 | 1015.3 |
| 20260905203537 | 26 | 26 | 11.3 | 20.9 | 0.00 | 0.00 | 0.00 | 86 | 1015.4 |
| 20260905203104 | 26 | 9 | 11.3 | 27.4 | 0.00 | 0.00 | 0.00 | 87 | 1015.4 |
| 20260905202536 | 26 | 28 | 14.5 | 27.4 | 0.00 | 0.00 | 0.00 | 85 | 1015.4 |
| 20260905202038 | 26 | 15 | 8.0 | 19.3 | 0.00 | 0.00 | 0.00 | 87 | 1015.5 |
| 20260905201602 | 26 | 42 | 8.0 | 24.1 | 0.00 | 0.00 | 0.00 | 84 | 1015.5 |
| 20260905201038 | 26 | 42 | 12.9 | 24.1 | 0.00 | 0.00 | 0.00 | 83 | 1015.5 |
| 20260905200535 | 27 | 12 | 6.4 | 19.3 | 0.00 | 0.00 | 0.00 | 82 | 1015.3 |
| 20260905200112 | 27 | 9 | 6.4 | 16.1 | 0.00 | 0.00 | 0.00 | 81 | 1015.6 |
| 20260905195538 | 27 | 348 | 4.8 | 16.1 | 0.00 | 0.00 | 0.00 | 83 | 1015.4 |
| 20260905195034 | 27 | 16 | 8.0 | 16.1 | 0.00 | 0.00 | 0.00 | 81 | 1015.6 |
| 20260905194600 | 27 | 23 | 8.0 | 16.1 | 0.00 | 0.00 | 0.00 | 82 | 1015.5 |
| 20260905194034 | 27 | 55 | 8.0 | 16.1 | 0.00 | 0.00 | 0.00 | 82 | 1015.4 |
| 20260905193534 | 27 | 59 | 8.0 | 17.7 | 0.00 | 0.00 | 0.00 | 82 | 1015.5 |
| 20260905193059 | 27 | 38 | 9.7 | 17.7 | 0.00 | 0.00 | 0.00 | 82 | 1015.5 |
| 20260905192536 | 27 | 49 | 6.4 | 14.5 | 0.00 | 0.00 | 0.00 | 83 | 1015.7 |
| 20260905192034 | 27 | 25 | 8.0 | 14.5 | 0.00 | 0.00 | 0.00 | 82 | 1015.6 |
| 20260905191553 | 26 | 5 | 4.8 | 20.9 | 0.00 | 0.00 | 0.00 | 81 | 1015.6 |
| 20260905191033 | 26 | 22 | 8.0 | 20.9 | 0.00 | 0.00 | 0.00 | 82 | 1015.6 |
| 20260905190533 | 26 | 30 | 8.0 | 20.9 | 0.00 | 0.00 | 0.00 | 82 | 1015.7 |
| 20260905190051 | 26 | 25 | 6.4 | 17.7 | 0.00 | 0.00 | 0.00 | 84 | 1015.6 |
| 20260905185534 | 26 | 40 | 8.0 | 20.9 | 0.00 | 0.00 | 0.00 | 82 | 1015.9 |
| 20260905185035 | 26 | 28 | 11.3 | 20.9 | 0.00 | 0.00 | 0.00 | 81 | 1015.8 |
| 20260905184606 | 26 | 28 | 6.4 | 16.1 | 0.00 | 0.00 | 0.00 | 83 | 1015.6 |
| 20260905184039 | 26 | 57 | 6.4 | 16.1 | 0.00 | 0.00 | 0.00 | 83 | 1015.6 |
| 20260905183535 | 26 | 55 | 6.4 | 14.5 | 0.00 | 0.00 | 0.00 | 83 | 1015.7 |
| 20260905183057 | 26 | 47 | 6.4 | 14.5 | 0.00 | 0.00 | 0.00 | 86 | 1015.8 |
| 20260905182533 | 26 | 333 | 4.8 | 12.9 | 0.00 | 0.00 | 0.00 | 86 | 1015.8 |
| 20260905182034 | 26 | 21 | 3.2 | 17.7 | 0.00 | 0.00 | 0.00 | 88 | 1015.9 |
| 20260905181558 | 25 | 28 | 6.4 | 17.7 | 0.00 | 0.00 | 0.00 | 87 | 1015.8 |
| 20260905181033 | 25 | 26 | 9.7 | 17.7 | 0.00 | 0.00 | 0.00 | 86 | 1015.8 |
| 20260905180534 | 25 | 38 | 1.6 | 14.5 | 0.00 | 0.00 | 0.00 | 88 | 1015.9 |
| 20260905180100 | 25 | 355 | 4.8 | 14.5 | 0.00 | 0.00 | 0.00 | 88 | 1015.9 |
| 20260905175536 | 25 | 50 | 1.6 | 8.0 | 0.00 | 0.00 | 0.00 | 89 | 1016.0 |
| 20260905175038 | 25 | 24 | 3.2 | 8.0 | 0.00 | 0.00 | 0.00 | 89 | 1015.9 |
| 20260905174557 | 25 | 34 | 1.6 | 4.8 | 0.00 | 0.00 | 0.00 | 90 | 1015.9 |
| 20260905174035 | 24 | 34 | 3.2 | 8.0 | 0.00 | 0.00 | 0.00 | 91 | 1015.9 |
| 20260905173539 | 24 | 37 | 4.8 | 8.0 | 0.00 | 0.00 | 0.00 | 91 | 1016.0 |
| 20260905173103 | 24 | 37 | 3.2 | 9.7 | 0.00 | 0.00 | 0.00 | 92 | 1016.1 |
| 20260905172534 | 24 | 33 | 3.2 | 9.7 | 0.00 | 0.00 | 0.00 | 92 | 1016.1 |
| 20260905172036 | 24 | 20 | 4.8 | 9.7 | 0.00 | 0.00 | 0.00 | 91 | 1016.0 |
| 20260905171601 | 24 | 40 | 3.2 | 8.0 | 0.00 | 0.00 | 0.00 | 91 | 1016.2 |
| 20260905171034 | 24 | 22 | 1.6 | 6.4 | 0.00 | 0.00 | 0.00 | 91 | 1016.0 |
| 20260905170534 | 24 | 25 | 3.2 | 6.4 | 0.00 | 0.00 | 0.00 | 92 | 1016.1 |
| 20260905170112 | 23 | 26 | 1.6 | 8.0 | 0.00 | 0.00 | 0.00 | 91 | 1016.1 |
| 20260905165535 | 23 | 29 | 1.6 | 8.0 | 0.00 | 0.00 | 0.00 | 92 | 1016.1 |
| 20260905165038 | 23 | 360 | 3.2 | 6.4 | 0.00 | 0.00 | 0.00 | 93 | 1016.2 |
| 20260905164555 | 23 | 0 | 3.2 | 6.4 | 0.00 | 0.00 | 0.00 | 92 | 1016.1 |
| 20260905164035 | 23 | 32 | 3.2 | 8.0 | 0.00 | 0.00 | 0.00 | 93 | 1016.3 |
| 20260905163535 | 23 | 45 | 4.8 | 9.7 | 0.00 | 0.00 | 0.00 | 93 | 1016.3 |
| 20260905163053 | 23 | 28 | 4.8 | 9.7 | 0.00 | 0.00 | 0.00 | 92 | 1016.2 |
| 20260905162535 | 23 | 49 | 1.6 | 8.0 | 0.00 | 0.00 | 0.00 | 93 | 1016.1 |
| 20260905162034 | 23 | 22 | 3.2 | 8.0 | 0.00 | 0.00 | 0.00 | 92 | 1016.1 |
| 20260905161551 | 23 | 21 | 3.2 | 8.0 | 0.00 | 0.00 | 0.00 | 93 | 1016.1 |
| 20260905161035 | 23 | 10 | 3.2 | 11.3 | 0.00 | 0.00 | 0.00 | 93 | 1016.1 |
| 20260905160535 | 23 | 22 | 3.2 | 11.3 | 0.00 | 0.00 | 0.00 | 93 | 1016.1 |
| 20260905160059 | 23 | 25 | 3.2 | 12.9 | 0.00 | 0.00 | 0.00 | 94 | 1016.2 |
| 20260905155535 | 23 | 26 | 6.4 | 12.9 | 0.00 | 0.48 | 0.00 | 94 | 1016.1 |
| 20260905155033 | 23 | 35 | 3.2 | 12.9 | 0.00 | 0.48 | 0.00 | 95 | 1016.1 |
| 20260905154559 | 23 | 36 | 4.8 | 12.9 | 0.00 | 0.48 | 0.00 | 95 | 1016.0 |
| 20260905154039 | 23 | 19 | 6.4 | 12.9 | 0.00 | 0.48 | 0.00 | 95 | 1016.0 |
| 20260905153536 | 22 | 21 | 4.8 | 12.9 | 0.00 | 0.48 | 0.00 | 97 | 1016.0 |
| 20260905153051 | 22 | 44 | 4.8 | 12.9 | 0.00 | 0.48 | 0.00 | 98 | 1016.0 |
| 20260905152535 | 22 | 24 | 6.4 | 16.1 | 0.00 | 0.48 | 0.00 | 96 | 1016.0 |
| 20260905152033 | 22 | 44 | 4.8 | 16.1 | 0.00 | 0.48 | 0.00 | 97 | 1016.0 |
| 20260905151612 | 22 | 31 | 6.4 | 12.9 | 0.00 | 0.48 | 0.00 | 97 | 1016.0 |
| 20260905151035 | 22 | 49 | 4.8 | 11.3 | 0.00 | 0.48 | 0.00 | 97 | 1016.1 |
| 20260905150535 | 22 | 45 | 0.0 | 14.5 | 0.00 | 0.48 | 0.00 | 97 | 1015.8 |
| 20260905150058 | 22 | 56 | 6.4 | 14.5 | 0.00 | 0.48 | 0.00 | 97 | 1015.6 |
| 20260905145535 | 22 | 41 | 6.4 | 14.5 | 0.00 | 0.48 | 0.00 | 97 | 1015.6 |
| 20260905145034 | 22 | 57 | 0.0 | 14.5 | 0.00 | 0.48 | 0.00 | 98 | 1015.6 |
| 20260905144558 | 22 | 43 | 3.2 | 9.7 | 0.00 | 0.48 | 0.00 | 98 | 1015.6 |
| 20260905144037 | 22 | 69 | 3.2 | 12.9 | 0.00 | 0.48 | 0.00 | 98 | 1015.5 |
| 20260905143537 | 22 | 52 | 4.8 | 12.9 | 0.00 | 0.48 | 0.00 | 98 | 1015.4 |
| 20260905143053 | 22 | 28 | 1.6 | 14.5 | 0.00 | 0.48 | 0.00 | 99 | 1015.4 |
| 20260905142533 | 22 | 44 | 4.8 | 14.5 | 0.00 | 0.48 | 0.00 | 99 | 1015.3 |
| 20260905142033 | 22 | 63 | 6.4 | 14.5 | 0.00 | 0.48 | 0.00 | 99 | 1015.3 |
| 20260905141550 | 22 | 26 | 3.2 | 11.3 | 0.00 | 0.48 | 0.00 | 99 | 1015.3 |
| 20260905141033 | 22 | 49 | 3.2 | 11.3 | 0.00 | 0.48 | 0.00 | 100 | 1015.2 |
| 20260905140537 | 22 | 46 | 3.2 | 11.3 | 0.00 | 0.48 | 0.00 | 100 | 1015.2 |
| 20260905140057 | 22 | 71 | 1.6 | 14.5 | 0.00 | 0.48 | 0.00 | 100 | 1015.2 |
| 20260905135536 | 21 | 39 | 1.6 | 14.5 | 0.00 | 0.48 | 0.00 | 100 | 1015.1 |
| 20260905135034 | 21 | 33 | 6.4 | 14.5 | 0.00 | 0.48 | 0.00 | 100 | 1015.1 |
| 20260905134559 | 21 | 57 | 6.4 | 14.5 | 0.00 | 0.48 | 0.00 | 100 | 1015.1 |
| 20260905134034 | 21 | 53 | 4.8 | 14.5 | 0.00 | 0.48 | 0.00 | 100 | 1015.2 |
| 20260905133535 | 21 | 45 | 4.8 | 14.5 | 0.00 | 0.48 | 0.00 | 100 | 1015.3 |
| 20260905133056 | 21 | 47 | 3.2 | 12.9 | 0.00 | 0.48 | 0.00 | 100 | 1015.2 |
| 20260905132533 | 21 | 43 | 3.2 | 14.5 | 0.00 | 0.48 | 0.00 | 100 | 1015.1 |
| 20260905132038 | 21 | 50 | 4.8 | 14.5 | 0.00 | 0.48 | 0.00 | 100 | 1015.1 |
| 20260905131932 | 21 | 41 | 4.8 | 9.7 | 0.00 | 0.48 | 0.00 | 100 | 1015.2 |
| 20260905131035 | 21 | 64 | 4.8 | 9.7 | 0.00 | 0.48 | 0.00 | 100 | 1015.4 |
| 20260905130535 | 21 | 36 | 3.2 | 8.0 | 0.00 | 0.48 | 0.00 | 100 | 1015.6 |
| 20260905130056 | 21 | 48 | 3.2 | 8.0 | 0.00 | 0.48 | 0.00 | 100 | 1015.6 |
| 20260905125534 | 21 | 40 | 3.2 | 9.7 | 0.00 | 0.48 | 0.00 | 100 | 1015.4 |
| 20260905125034 | 21 | 29 | 3.2 | 9.7 | 0.00 | 0.48 | 0.00 | 100 | 1015.3 |
| 20260905124553 | 21 | 24 | 3.2 | 11.3 | 0.00 | 0.48 | 0.00 | 100 | 1015.2 |
| 20260905124034 | 21 | 19 | 4.8 | 11.3 | 0.00 | 0.48 | 0.00 | 100 | 1015.0 |
| 20260905123534 | 21 | 48 | 3.2 | 12.9 | 0.00 | 0.48 | 0.00 | 100 | 1014.9 |
| 20260905123052 | 21 | 46 | 3.2 | 12.9 | 0.00 | 0.48 | 0.00 | 100 | 1015.0 |
| 20260905122535 | 21 | 40 | 6.4 | 12.9 | 0.00 | 0.48 | 0.00 | 100 | 1014.9 |